When you browse on this site, cookies collect data to enhance your experience and personalize the content and advertising you see.
Visit our Privacy Policy to learn more. By continuing to use the site, you agree to this use of cookies and data.
  • En España
  • Lista de países
  • Para 7 días
  • Temperatura del agua
  • El tiempo en el mapa
  • Informadores
  • user-avatar
    Iniciar sesión

    Tiempo cada hora Osorno

    Hoy, 23 Enero, Jueves

    Tiempo Temperatura Precipitaciones Viento Presión Humedad
    00:00 +15°C° 0 mm 1 mps 758 mmHg 86%
    01:00 +14°C° 0 mm 1 mps 758 mmHg 90%
    02:00 +13°C° 0 mm 1 mps 758 mmHg 92%
    03:00 +13°C° 0 mm 1 mps 759 mmHg 94%
    04:00 +12°C° 0 mm 1 mps 759 mmHg 97%
    05:00 +14°C° 0 mm 1 mps 759 mmHg 89%
    06:00 +16°C° 0 mm 1 mps 760 mmHg 82%
    07:00 +18°C° 0 mm 1 mps 760 mmHg 75%
    08:00 +21°C° 0 mm 1 mps 760 mmHg 65%
    09:00 +23°C° 0 mm 1 mps 760 mmHg 54%
    10:00 +26°C° 0 mm 1 mps 761 mmHg 44%
    11:00 +27°C° 0 mm 2 mps 761 mmHg 41%
    12:00 +28°C° 0 mm 2 mps 761 mmHg 39%
    13:00 +29°C° 0 mm 3 mps 761 mmHg 36%
    14:00 +28°C° 0 mm 3 mps 761 mmHg 35%
    15:00 +28°C° 0 mm 3 mps 761 mmHg 34%
    16:00 +27°C° 0 mm 3 mps 761 mmHg 33%
    17:00 +25°C° 0 mm 3 mps 761 mmHg 39%
    18:00 +21°C° 0 mm 2 mps 761 mmHg 46%
    19:00 +18°C° 0 mm 2 mps 761 mmHg 53%
    20:00 +16°C° 0 mm 1 mps 761 mmHg 63%
    21:00 +14°C° 0 mm 1 mps 762 mmHg 73%
    22:00 +12°C° 0 mm 1 mps 762 mmHg 83%
    23:00 +11°C° 0 mm 1 mps 762 mmHg 87%

    Mañana, 24 Enero, Viernes

    Tiempo Temperatura Precipitaciones Viento Presión Humedad
    00:00 +10°C° 0 mm 1 mps 762 mmHg 90%
    01:00 +8°C° 0 mm 0 mps 761 mmHg 94%
    02:00 +8°C° 0 mm 0 mps 762 mmHg 95%
    03:00 +8°C° 0 mm 0 mps 762 mmHg 96%
    04:00 +7°C° 0 mm 0 mps 762 mmHg 97%
    05:00 +9°C° 0 mm 0 mps 762 mmHg 90%
    06:00 +11°C° 0 mm 0 mps 762 mmHg 83%
    07:00 +13°C° 0 mm 0 mps 762 mmHg 76%
    08:00 +16°C° 0 mm 0 mps 762 mmHg 61%
    09:00 +20°C° 0 mm 0 mps 761 mmHg 47%
    10:00 +23°C° 0 mm 0 mps 761 mmHg 33%
    11:00 +26°C° 0 mm 1 mps 761 mmHg 30%
    12:00 +27°C° 0 mm 1 mps 761 mmHg 27%
    13:00 +28°C° 0 mm 2 mps 761 mmHg 25%
    14:00 +27°C° 0 mm 2 mps 761 mmHg 27%
    15:00 +26°C° 0 mm 3 mps 761 mmHg 29%
    16:00 +26°C° 0 mm 3 mps 761 mmHg 32%
    17:00 +24°C° 0 mm 3 mps 761 mmHg 39%
    18:00 +20°C° 0 mm 2 mps 761 mmHg 47%
    19:00 +18°C° 0 mm 2 mps 762 mmHg 55%
    20:00 +18°C° 0 mm 1 mps 762 mmHg 61%
    21:00 +15°C° 0 mm 1 mps 762 mmHg 67%
    22:00 +13°C° 0 mm 0 mps 762 mmHg 74%
    23:00 +13°C° 0 mm 0 mps 762 mmHg 76%

    Pasado mañana, 25 Enero, Sábado

    Tiempo Temperatura Precipitaciones Viento Presión Humedad
    00:00 +12°C° 0 mm 0 mps 762 mmHg 78%
    01:00 +12°C° 0 mm 0 mps 762 mmHg 81%
    02:00 +12°C° 0 mm 0 mps 762 mmHg 81%
    03:00 +12°C° 0 mm 0 mps 762 mmHg 82%
    04:00 +12°C° 0 mm 0 mps 762 mmHg 83%
    05:00 +13°C° 0 mm 0 mps 762 mmHg 78%
    06:00 +14°C° 0 mm 0 mps 762 mmHg 73%
    07:00 +16°C° 0 mm 0 mps 762 mmHg 69%
    08:00 +18°C° 0 mm 0 mps 762 mmHg 63%
    09:00 +22°C° 0 mm 1 mps 762 mmHg 57%
    10:00 +25°C° 0 mm 1 mps 761 mmHg 52%
    11:00 +25°C° 0 mm 1 mps 761 mmHg 51%
    12:00 +26°C° 0 mm 2 mps 761 mmHg 50%
    13:00 +26°C° 0 mm 2 mps 761 mmHg 49%
    14:00 +27°C° 0 mm 2 mps 760 mmHg 48%
    15:00 +27°C° 0 mm 2 mps 760 mmHg 47%
    16:00 +27°C° 0 mm 2 mps 760 mmHg 45%
    17:00 +25°C° 0 mm 2 mps 760 mmHg 54%
    18:00 +23°C° 0 mm 2 mps 761 mmHg 63%
    19:00 +20°C° 0 mm 2 mps 761 mmHg 71%
    20:00 +18°C° 0 mm 2 mps 761 mmHg 79%
    21:00 +16°C° 0 mm 1 mps 761 mmHg 88%
    22:00 +15°C° 0 mm 1 mps 762 mmHg 96%
    23:00 +14°C° 0 mm 0 mps 761 mmHg 97%

    26 Enero, Domingo

    Tiempo Temperatura Precipitaciones Viento Presión Humedad
    00:00 +13°C° 0 mm 0 mps 761 mmHg 98%
    01:00 +13°C° 0 mm 0 mps 761 mmHg 99%
    02:00 +13°C° 0 mm 0 mps 761 mmHg 99%
    03:00 +13°C° 0 mm 0 mps 761 mmHg 98%
    04:00 +12°C° 0 mm 0 mps 761 mmHg 98%
    05:00 +13°C° 0 mm 0 mps 761 mmHg 94%
    06:00 +14°C° 0 mm 0 mps 761 mmHg 89%
    07:00 +15°C° 0 mm 0 mps 761 mmHg 85%
    08:00 +20°C° 0 mm 1 mps 761 mmHg 74%
    09:00 +22°C° 0 mm 1 mps 761 mmHg 64%
    10:00 +25°C° 0 mm 1 mps 761 mmHg 53%
    11:00 +25°C° 0 mm 1 mps 761 mmHg 51%
    12:00 +26°C° 0 mm 1 mps 761 mmHg 48%
    13:00 +27°C° 0 mm 1 mps 761 mmHg 45%
    14:00 +27°C° 0 mm 2 mps 761 mmHg 45%
    15:00 +27°C° 0 mm 2 mps 760 mmHg 45%
    16:00 +27°C° 0 mm 2 mps 760 mmHg 45%
    17:00 +25°C° 0 mm 2 mps 761 mmHg 52%
    18:00 +23°C° 0 mm 2 mps 761 mmHg 58%
    19:00 +20°C° 0 mm 2 mps 761 mmHg 64%
    20:00 +19°C° 0 mm 1 mps 761 mmHg 73%
    21:00 +16°C° 0 mm 1 mps 762 mmHg 83%
    22:00 +14°C° 0 mm 1 mps 762 mmHg 93%
    23:00 +13°C° 0 mm 1 mps 762 mmHg 95%

    27 Enero, Lunes

    Tiempo Temperatura Precipitaciones Viento Presión Humedad
    00:00 +13°C° 0 mm 1 mps 762 mmHg 96%
    01:00 +11°C° 0 mm 0 mps 761 mmHg 98%
    02:00 +11°C° 0 mm 0 mps 761 mmHg 98%
    03:00 +10°C° 0 mm 0 mps 761 mmHg 98%
    04:00 +10°C° 0 mm 0 mps 761 mmHg 98%
    05:00 +11°C° 0 mm 0 mps 761 mmHg 93%
    06:00 +12°C° 0 mm 0 mps 760 mmHg 87%
    07:00 +14°C° 0 mm 0 mps 760 mmHg 82%
    08:00 +17°C° 0 mm 0 mps 760 mmHg 68%
    09:00 +20°C° 0 mm 0 mps 760 mmHg 55%
    10:00 +26°C° 0 mm 1 mps 760 mmHg 41%
    11:00 +27°C° 0 mm 1 mps 759 mmHg 36%
    12:00 +29°C° 0 mm 1 mps 759 mmHg 31%
    13:00 +30°C° 0 mm 1 mps 759 mmHg 26%
    14:00 +30°C° 0 mm 2 mps 758 mmHg 29%
    15:00 +29°C° 0 mm 2 mps 758 mmHg 31%
    16:00 +29°C° 0 mm 2 mps 758 mmHg 33%
    17:00 +26°C° 0 mm 2 mps 758 mmHg 43%
    18:00 +24°C° 0 mm 2 mps 758 mmHg 54%
    19:00 +20°C° 0 mm 2 mps 758 mmHg 64%
    20:00 +20°C° 0 mm 1 mps 759 mmHg 72%
    21:00 +18°C° 0 mm 1 mps 759 mmHg 79%
    22:00 +16°C° 0 mm 1 mps 759 mmHg 87%
    23:00 +16°C° 0 mm 1 mps 758 mmHg 89%

    28 Enero, Martes

    Tiempo Temperatura Precipitaciones Viento Presión Humedad
    00:00 +16°C° 0 mm 1 mps 758 mmHg 92%
    01:00 +15°C° 0 mm 1 mps 757 mmHg 94%
    02:00 +16°C° 0 mm 1 mps 757 mmHg 92%
    03:00 +16°C° 0 mm 1 mps 757 mmHg 90%
    04:00 +17°C° 0 mm 2 mps 757 mmHg 88%
    05:00 +16°C° 0.4 mm 1 mps 757 mmHg 91%
    06:00 +16°C° 0.4 mm 1 mps 757 mmHg 94%
    07:00 +16°C° 0.4 mm 1 mps 757 mmHg 98%
    08:00 +18°C° 0.3 mm 1 mps 757 mmHg 95%
    09:00 +19°C° 0.3 mm 1 mps 758 mmHg 92%
    10:00 +19°C° 0.3 mm 2 mps 758 mmHg 90%
    11:00 +20°C° 0.3 mm 2 mps 758 mmHg 76%
    12:00 +22°C° 0.3 mm 3 mps 758 mmHg 63%
    13:00 +24°C° 0.3 mm 3 mps 758 mmHg 49%
    14:00 +22°C° 0 mm 3 mps 758 mmHg 49%
    15:00 +22°C° 0 mm 3 mps 758 mmHg 49%
    16:00 +21°C° 0 mm 3 mps 758 mmHg 49%
    17:00 +19°C° 0 mm 3 mps 758 mmHg 55%
    18:00 +18°C° 0 mm 3 mps 758 mmHg 61%
    19:00 +16°C° 0 mm 3 mps 759 mmHg 67%
    20:00 +14°C° 0 mm 2 mps 759 mmHg 70%
    21:00 +13°C° 0 mm 2 mps 760 mmHg 73%
    22:00 +10°C° 0 mm 2 mps 760 mmHg 76%
    23:00 +10°C° 0 mm 1 mps 760 mmHg 81%
    Mostrar más